Flag for Paraguay Weather past 2 weeks in Ciudad del Este, Paraguay

Now
86 °F

Passing clouds.


Feels Like: 91 °F
Forecast: 74 / 90 °F
Wind: 8 mph from Northeast

Location: Foz Do Iguacu Aeroporto

Current Time: Mar 1, 2015 at 12:47:36 PM

Latest Report: Mar 1, 2015 at 12:00 PM


Visibility: N/A

Pressure: 30.01 "Hg

Humidity: 59%

Dew point: 70 °F

Location of Ciudad del EsteLocation

Historic Weather in Ciudad del Este — Graph

°F

Ciudad del Este temperature yesterday

Maximum temperature yesterday: 91 °F (at 5:00 PM)
Minimum temperature yesterday: 72 °F (at 4:00 AM)
Average temperature yesterday: 80 °F

Past Weeks' High & Low Weather Summary

 TemperatureHumidityPressure
High93 °F (Feb 22, 3:00 PM)100% (Feb 14, 6:00 PM)30.07 "Hg (Feb 14, 6:00 PM)
Low39 °F (Feb 17, 7:00 PM)49% (Feb 22, 3:00 PM)29.36 "Hg (Feb 22, 4:00 AM)
Average78 °F82%29.89 "Hg
* Reported Feb 14 12:00 Noon — Mar 1 12:00 Noon, Ciudad del Este, Weather by CustomWeather, © 2015

Note: Actual official high and low records may vary slightly from our data, if they occured in-between our weather recording intervals... More about our weather records

Advertising

Ciudad del Este weather history for previous 24 hours

 ConditionsComfort  
Time TempWeatherWind HumidityBarometerVisibility
12:00 PM
Sun, Mar 1
86 °FPassing clouds.8 mph59%30.01 "HgN/A
11:00 AM82 °FScattered clouds.8 mph66%30.01 "HgN/A
10:00 AM81 °FPassing clouds.6 mph70%30.01 "HgN/A
9:00 AM79 °FSunny.9 mph74%30.01 "Hg10 mi
8:00 AM73 °FSunny.12 mph89%29.98 "Hg10 mi
7:00 AM73 °FSunny.10 mph89%29.98 "Hg10 mi
6:00 AM73 °FScattered clouds.7 mph94%29.95 "HgN/A
5:00 AM73 °FPassing clouds.7 mph94%29.92 "HgN/A
4:00 AM75 °FPassing clouds.7 mph89%29.92 "HgN/A
3:00 AM75 °FClear.7 mph89%29.89 "Hg10 mi
2:00 AM75 °FClear.6 mph94%29.92 "Hg10 mi
1:00 AM75 °FClear.6 mph100%29.92 "Hg10 mi
12:00 AM75 °FClear.2 mph94%29.92 "Hg10 mi
11:00 PM
Sat, Feb 28
75 °FClear.No wind94%29.92 "Hg10 mi
10:00 PM79 °FClear.5 mph84%29.92 "Hg10 mi
9:00 PM77 °FClear.No wind89%29.92 "Hg10 mi
8:00 PM79 °FPassing clouds.No wind89%29.89 "HgN/A
7:00 PM84 °FPassing clouds.3 mph74%29.89 "HgN/A
6:00 PM86 °FPassing clouds.2 mph70%29.86 "HgN/A
5:00 PM91 °FPassing clouds.2 mph56%29.86 "HgN/A
4:00 PM90 °FScattered clouds.2 mph55%29.89 "HgN/A
3:00 PM90 °FPassing clouds.3 mph63%29.92 "HgN/A
2:00 PM90 °FPassing clouds.2 mph59%29.92 "HgN/A
1:00 PM88 °FPassing clouds.5 mph62%29.95 "HgN/A
12:00 PM86 °FPassing clouds.6 mph66%29.95 "HgN/A
Weather by CustomWeather, © 2015

See weather overviewHow to use our weather pages